Time,TemperatureF,DewpointF,PressureIn,WindDirection,WindDirectionDegrees,WindSpeedMPH,WindSpeedGustMPH,Humidity,HourlyPrecipIn,Conditions,Clouds,dailyrainin,SoftwareType,DateUTC
2013-03-13 00:03:00,41.5,35.0,30.38,North,349,3.0,-999.0,79,-99.99,,,0.00,weatherlink.com 1.10,2013-03-13 05:03:00,
2013-03-13 00:18:00,42.2,35.0,30.39,NW,319,2.0,-999.0,75,-99.99,,,0.00,weatherlink.com 1.10,2013-03-13 05:18:00,
2013-03-13 00:33:00,42.5,34.0,30.38,North,349,2.0,-999.0,73,-99.99,,,0.00,weatherlink.com 1.10,2013-03-13 05:33:00,
2013-03-13 00:48:00,41.5,34.0,30.39,North,355,3.0,-999.0,74,-99.99,,,0.00,weatherlink.com 1.10,2013-03-13 05:48:00,
2013-03-13 01:03:00,40.5,32.0,30.37,NW,311,1.0,-999.0,73,-99.99,,,0.00,weatherlink.com 1.10,2013-03-13 06:03:00,
2013-03-13 01:18:00,38.4,32.0,30.38,NW,311,0.0,-999.0,78,-99.99,,,0.00,weatherlink.com 1.10,2013-03-13 06:18:00,
2013-03-13 01:33:00,37.3,32.0,30.38,WSW,248,1.0,-999.0,81,-99.99,,,0.00,weatherlink.com 1.10,2013-03-13 06:33:00,
2013-03-13 01:48:00,38.0,32.0,30.38,SW,227,4.0,-999.0,80,-99.99,,,0.00,weatherlink.com 1.10,2013-03-13 06:48:00,
2013-03-13 02:03:00,37.2,33.0,30.40,West,264,5.0,-999.0,83,-99.99,,,0.00,weatherlink.com 1.10,2013-03-13 07:03:00,
2013-03-13 02:18:00,36.7,32.0,30.40,West,268,0.0,-999.0,82,-99.99,,,0.00,weatherlink.com 1.10,2013-03-13 07:18:00,
2013-03-13 02:34:00,36.1,32.0,30.40,West,268,0.0,-999.0,84,-99.99,,,0.00,weatherlink.com 1.10,2013-03-13 07:34:00,
2013-03-13 02:49:00,35.9,32.0,30.40,West,268,0.0,-999.0,85,-99.99,,,0.00,weatherlink.com 1.10,2013-03-13 07:49:00,
2013-03-13 03:04:00,35.8,32.0,30.39,West,268,1.0,-999.0,85,-99.99,,,0.00,weatherlink.com 1.10,2013-03-13 08:04:00,
2013-03-13 03:19:00,36.3,32.0,30.40,West,268,0.0,-999.0,84,-99.99,,,0.00,weatherlink.com 1.10,2013-03-13 08:19:00,
2013-03-13 03:34:00,36.3,32.0,30.39,West,268,1.0,-999.0,85,-99.99,,,0.00,weatherlink.com 1.10,2013-03-13 08:34:00,
2013-03-13 03:49:00,36.9,33.0,30.39,NW,310,0.0,-999.0,84,-99.99,,,0.00,weatherlink.com 1.10,2013-03-13 08:49:00,
2013-03-13 04:04:00,36.4,32.0,30.39,NW,318,0.0,-999.0,84,-99.99,,,0.00,weatherlink.com 1.10,2013-03-13 09:04:00,
2013-03-13 04:19:00,36.7,32.0,30.39,WNW,292,1.0,-999.0,82,-99.99,,,0.00,weatherlink.com 1.10,2013-03-13 09:19:00,
2013-03-13 04:34:00,35.2,31.0,30.39,WNW,288,1.0,-999.0,84,-99.99,,,0.00,weatherlink.com 1.10,2013-03-13 09:34:00,
2013-03-13 04:49:00,34.5,31.0,30.39,WNW,290,0.0,-999.0,85,-99.99,,,0.00,weatherlink.com 1.10,2013-03-13 09:49:00,
2013-03-13 05:04:00,34.4,31.0,30.39,WNW,290,1.0,-999.0,86,-99.99,,,0.00,weatherlink.com 1.10,2013-03-13 10:04:00,
2013-03-13 05:19:00,34.4,31.0,30.39,WNW,290,0.0,-999.0,86,-99.99,,,0.00,weatherlink.com 1.10,2013-03-13 10:19:00,
2013-03-13 05:34:00,34.2,31.0,30.39,SW,215,0.0,-999.0,86,-99.99,,,0.00,weatherlink.com 1.10,2013-03-13 10:34:00,
2013-03-13 05:49:00,34.2,31.0,30.39,NW,311,0.0,-999.0,88,-99.99,,,0.00,weatherlink.com 1.10,2013-03-13 10:49:00,
2013-03-13 06:04:00,34.4,31.0,30.40,NW,310,0.0,-999.0,87,-99.99,,,0.00,weatherlink.com 1.10,2013-03-13 11:04:00,
2013-03-13 06:19:00,34.7,31.0,30.40,NW,311,1.0,-999.0,87,-99.99,,,0.00,weatherlink.com 1.10,2013-03-13 11:19:00,
2013-03-13 06:34:00,35.0,31.0,30.41,North,350,2.0,-999.0,86,-99.99,,,0.00,weatherlink.com 1.10,2013-03-13 11:34:00,
2013-03-13 06:49:00,35.0,31.0,30.41,NW,324,1.0,-999.0,84,-99.99,,,0.00,weatherlink.com 1.10,2013-03-13 11:49:00,
2013-03-13 07:04:00,34.5,30.0,30.42,NW,304,1.0,-999.0,83,-99.99,,,0.00,weatherlink.com 1.10,2013-03-13 12:04:00,
2013-03-13 07:19:00,33.7,29.0,30.41,NW,304,0.0,-999.0,84,-99.99,,,0.00,weatherlink.com 1.10,2013-03-13 12:19:00,
2013-03-13 07:34:00,32.8,29.0,30.42,NW,304,0.0,-999.0,86,-99.99,,,0.00,weatherlink.com 1.10,2013-03-13 12:34:00,
2013-03-13 07:49:00,31.9,29.0,30.42,NW,304,1.0,-999.0,87,-99.99,,,0.00,weatherlink.com 1.10,2013-03-13 12:49:00,
2013-03-13 08:04:00,31.5,28.0,30.43,NW,304,0.0,-999.0,88,-99.99,,,0.00,weatherlink.com 1.10,2013-03-13 13:04:00,
2013-03-13 08:19:00,32.1,29.0,30.43,NW,304,0.0,-999.0,89,-99.99,,,0.00,weatherlink.com 1.10,2013-03-13 13:19:00,
2013-03-13 08:34:00,32.9,30.0,30.44,NW,304,1.0,-999.0,89,-99.99,,,0.00,weatherlink.com 1.10,2013-03-13 13:34:00,
2013-03-13 08:49:00,34.6,31.0,30.43,North,355,2.0,-999.0,85,-99.99,,,0.00,weatherlink.com 1.10,2013-03-13 13:49:00,
2013-03-13 09:04:00,37.7,34.0,30.43,North,349,1.0,-999.0,85,-99.99,,,0.00,weatherlink.com 1.10,2013-03-13 14:04:00,
2013-03-13 09:19:00,40.4,34.0,30.44,NE,39,0.0,-999.0,77,-99.99,,,0.00,weatherlink.com 1.10,2013-03-13 14:19:00,
2013-03-13 09:34:00,42.5,36.0,30.44,South,173,3.0,-999.0,77,-99.99,,,0.00,weatherlink.com 1.10,2013-03-13 14:34:00,
2013-03-13 09:49:00,45.0,38.0,30.44,SE,146,1.0,-999.0,75,-99.99,,,0.00,weatherlink.com 1.10,2013-03-13 14:49:00,
2013-03-13 10:04:00,46.2,39.0,30.46,ESE,123,3.0,-999.0,75,-99.99,,,0.00,weatherlink.com 1.10,2013-03-13 15:04:00,
2013-03-13 10:19:00,47.3,39.0,30.45,South,170,2.0,-999.0,74,-99.99,,,0.00,weatherlink.com 1.10,2013-03-13 15:19:00,
2013-03-13 10:34:00,49.1,39.0,30.46,South,182,2.0,-999.0,68,-99.99,,,0.00,weatherlink.com 1.10,2013-03-13 15:34:00,
2013-03-13 10:49:00,51.0,39.0,30.45,SE,127,9.0,-999.0,64,-99.99,,,0.00,weatherlink.com 1.10,2013-03-13 15:49:00,
2013-03-13 11:04:00,51.6,38.0,30.45,SSE,165,10.0,-999.0,60,-99.99,,,0.00,weatherlink.com 1.10,2013-03-13 16:04:00,
2013-03-13 11:20:00,52.2,36.0,30.45,SE,137,5.0,-999.0,55,-99.99,,,0.00,weatherlink.com 1.10,2013-03-13 16:20:00,
2013-03-13 11:35:00,52.8,36.0,30.45,SSE,165,4.0,-999.0,54,-99.99,,,0.00,weatherlink.com 1.10,2013-03-13 16:35:00,
2013-03-13 11:50:00,53.2,37.0,30.45,SSE,148,12.0,-999.0,54,-99.99,,,0.00,weatherlink.com 1.10,2013-03-13 16:50:00,
2013-03-13 12:05:00,53.6,37.0,30.44,South,169,3.0,-999.0,54,-99.99,,,0.00,weatherlink.com 1.10,2013-03-13 17:05:00,
2013-03-13 12:20:00,54.6,38.0,30.44,South,172,5.0,-999.0,53,-99.99,,,0.00,weatherlink.com 1.10,2013-03-13 17:20:00,
2013-03-13 12:35:00,55.1,38.0,30.44,SE,141,4.0,-999.0,53,-99.99,,,0.00,weatherlink.com 1.10,2013-03-13 17:35:00,
2013-03-13 12:50:00,55.4,38.0,30.42,ESE,123,6.0,-999.0,53,-99.99,,,0.00,weatherlink.com 1.10,2013-03-13 17:50:00,
2013-03-13 13:05:00,56.7,38.0,30.42,East,87,6.0,-999.0,49,-99.99,,,0.00,weatherlink.com 1.10,2013-03-13 18:05:00,
2013-03-13 13:20:00,57.0,38.0,30.41,SE,136,7.0,-999.0,49,-99.99,,,0.00,weatherlink.com 1.10,2013-03-13 18:20:00,
2013-03-13 13:35:00,58.2,38.0,30.40,SSW,203,6.0,-999.0,47,-99.99,,,0.00,weatherlink.com 1.10,2013-03-13 18:35:00,
2013-03-13 13:50:00,58.9,38.0,30.39,South,177,6.0,-999.0,46,-99.99,,,0.00,weatherlink.com 1.10,2013-03-13 18:50:00,
2013-03-13 14:05:00,59.7,37.0,30.38,ESE,117,6.0,-999.0,43,-99.99,,,0.00,weatherlink.com 1.10,2013-03-13 19:05:00,
2013-03-13 14:20:00,60.3,38.0,30.37,SE,130,10.0,-999.0,44,-99.99,,,0.00,weatherlink.com 1.10,2013-03-13 19:20:00,
2013-03-13 14:35:00,61.4,38.0,30.36,SSE,167,7.0,-999.0,42,-99.99,,,0.00,weatherlink.com 1.10,2013-03-13 19:35:00,
2013-03-13 14:50:00,62.2,37.0,30.34,SSE,167,10.0,-999.0,40,-99.99,,,0.00,weatherlink.com 1.10,2013-03-13 19:50:00,
2013-03-13 15:05:00,63.2,37.0,30.34,SE,138,5.0,-999.0,38,-99.99,,,0.00,weatherlink.com 1.10,2013-03-13 20:05:00,
2013-03-13 15:20:00,63.0,37.0,30.32,SE,146,15.0,-999.0,39,-99.99,,,0.00,weatherlink.com 1.10,2013-03-13 20:20:00,
2013-03-13 15:35:00,63.5,39.0,30.31,SE,137,13.0,-999.0,40,-99.99,,,0.00,weatherlink.com 1.10,2013-03-13 20:35:00,
2013-03-13 15:50:00,64.7,36.0,30.30,SSW,194,7.0,-999.0,35,-99.99,,,0.00,weatherlink.com 1.10,2013-03-13 20:50:00,
2013-03-13 16:05:00,65.1,37.0,30.30,SSE,157,11.0,-999.0,35,-99.99,,,0.00,weatherlink.com 1.10,2013-03-13 21:05:00,
2013-03-13 16:20:00,65.9,37.0,30.30,SW,233,6.0,-999.0,34,-99.99,,,0.00,weatherlink.com 1.10,2013-03-13 21:20:00,
2013-03-13 16:35:00,65.7,36.0,30.29,SSE,153,12.0,-999.0,34,-99.99,,,0.00,weatherlink.com 1.10,2013-03-13 21:35:00,
2013-03-13 16:50:00,65.4,36.0,30.30,SSE,167,7.0,-999.0,34,-99.99,,,0.00,weatherlink.com 1.10,2013-03-13 21:50:00,
2013-03-13 17:05:00,66.1,36.0,30.29,SSW,193,4.0,-999.0,33,-99.99,,,0.00,weatherlink.com 1.10,2013-03-13 22:05:00,
2013-03-13 17:20:00,66.4,36.0,30.28,SSE,159,10.0,-999.0,33,-99.99,,,0.00,weatherlink.com 1.10,2013-03-13 22:20:00,
2013-03-13 17:35:00,66.2,37.0,30.28,SE,140,10.0,-999.0,34,-99.99,,,0.00,weatherlink.com 1.10,2013-03-13 22:35:00,
2013-03-13 17:50:00,66.4,36.0,30.29,SSW,206,5.0,-999.0,32,-99.99,,,0.00,weatherlink.com 1.10,2013-03-13 22:50:00,
2013-03-13 18:05:00,66.8,36.0,30.28,South,172,9.0,-999.0,32,-99.99,,,0.00,weatherlink.com 1.10,2013-03-13 23:05:00,
2013-03-13 18:20:00,66.4,36.0,30.28,SSW,203,4.0,-999.0,32,-99.99,,,0.00,weatherlink.com 1.10,2013-03-13 23:20:00,
2013-03-13 18:35:00,66.3,35.0,30.28,SSE,157,2.0,-999.0,31,-99.99,,,0.00,weatherlink.com 1.10,2013-03-13 23:35:00,
2013-03-13 18:50:00,64.9,36.0,30.28,South,182,5.0,-999.0,34,-99.99,,,0.00,weatherlink.com 1.10,2013-03-13 23:50:00,
2013-03-13 19:06:00,63.6,36.0,30.29,ESE,109,4.0,-999.0,36,-99.99,,,0.00,weatherlink.com 1.10,2013-03-14 00:06:00,
2013-03-13 19:21:00,61.8,37.0,30.29,SSE,153,2.0,-999.0,40,-99.99,,,0.00,weatherlink.com 1.10,2013-03-14 00:21:00,
2013-03-13 19:36:00,60.2,38.0,30.29,SE,137,2.0,-999.0,44,-99.99,,,0.00,weatherlink.com 1.10,2013-03-14 00:36:00,
2013-03-13 19:51:00,57.8,39.0,30.29,SE,128,1.0,-999.0,49,-99.99,,,0.00,weatherlink.com 1.10,2013-03-14 00:51:00,
2013-03-13 20:06:00,56.3,39.0,30.29,SE,128,0.0,-999.0,53,-99.99,,,0.00,weatherlink.com 1.10,2013-03-14 01:06:00,
2013-03-13 20:21:00,54.5,39.0,30.28,SE,128,0.0,-999.0,57,-99.99,,,0.00,weatherlink.com 1.10,2013-03-14 01:21:00,
2013-03-13 20:36:00,53.1,38.0,30.29,SE,128,1.0,-999.0,58,-99.99,,,0.00,weatherlink.com 1.10,2013-03-14 01:36:00,
2013-03-13 20:51:00,52.4,38.0,30.28,SE,128,1.0,-999.0,58,-99.99,,,0.00,weatherlink.com 1.10,2013-03-14 01:51:00,
2013-03-13 21:06:00,52.3,38.0,30.27,SE,128,0.0,-999.0,58,-99.99,,,0.00,weatherlink.com 1.10,2013-03-14 02:06:00,
2013-03-13 21:21:00,51.5,38.0,30.27,East,99,3.0,-999.0,60,-99.99,,,0.00,weatherlink.com 1.10,2013-03-14 02:21:00,
2013-03-13 21:36:00,51.2,37.0,30.27,East,99,2.0,-999.0,59,-99.99,,,0.00,weatherlink.com 1.10,2013-03-14 02:36:00,
2013-03-13 21:51:00,50.8,37.0,30.28,ESE,118,1.0,-999.0,59,-99.99,,,0.00,weatherlink.com 1.10,2013-03-14 02:51:00,
2013-03-13 22:21:00,48.8,37.0,30.27,ESE,111,1.0,-999.0,63,-99.99,,,0.00,weatherlink.com 1.10,2013-03-14 03:21:00,
2013-03-13 23:06:00,47.6,37.0,30.27,ESE,105,1.0,-999.0,66,-99.99,,,0.00,weatherlink.com 1.10,2013-03-14 04:06:00,
2013-03-13 23:36:00,47.8,36.0,30.28,SSE,150,1.0,-999.0,65,-99.99,,,0.00,weatherlink.com 1.10,2013-03-14 04:36:00,
2013-03-13 23:51:00,46.7,36.0,30.28,SSE,155,1.0,-999.0,67,-99.99,,,0.00,weatherlink.com 1.10,2013-03-14 04:51:00,